Location: San Gennaro Vesuviano
(40.8833°N, 14.5333°E)
Time: 10:24:25
(UTC+00:00)

Hubble Space Telescope - Pass Details

Date: 22 April 2021
Orbit: 535 x 539 km, 28.5° (Epoch: 10 May)

Event Time Altitude Azimuth Distance (km) Brightness Sun altitude
Rises 18:42:40 0° 228° (SW) 2,670 4.6 -10.2°
Reaches altitude 10° 18:46:00 10° 199° (SSW) 1,779 3.3 -10.8°
Maximum altitude 18:47:54 13° 172° (S) 1,601 2.9 -11.1°
Enters shadow 18:49:11 11° 152° (SSE) 1,686 2.8 -11.3°
